Location: Stigler
(35.2540°N, 95.1230°W)
Time: 19:50:42
(UTC-05:00)

Daily predictions for brighter satellites

Satellite Brightness Start Highest point End
(mag) Time Altitude Azimuth Time Altitude Azimuth Time Altitude Azimuth
Cosmos 2322 Rocket 3.8 18:53:48 10° NW 18:59:02 41° WSW 19:04:15 10° S
Cosmos 2151 3.0 18:55:04 10° N 18:59:17 62° E 19:03:28 10° SSE
Cosmos 2366 rocket 4.3 18:53:32 10° S 18:59:45 78° W 19:05:56 10° N
Cosmos 2058 2.9 18:56:28 10° N 19:00:36 63° E 19:04:41 10° SSE
CORIOLIS 4.2 18:55:56 10° SSE 19:01:18 80° ENE 19:06:44 10° N
COSMOS 2428 3.4 18:57:52 10° N 19:03:00 34° ENE 19:08:06 10° SE
Cosmos 2219 3.5 18:58:06 10° S 19:03:35 50° ESE 19:09:07 10° NNE
Cosmos 44 Rocket 3.2 18:59:04 10° SSW 19:03:46 86° ESE 19:08:30 10° NNE
Cosmos 2333 Rocket 3.6 19:01:35 10° NNE 19:05:36 19° NE 19:09:35 10° E
Hubble Space Telescope 2.7 19:03:24 10° SSW 19:06:15 18° SSE 19:09:05 10° ESE
Cosmos 158 Rocket 3.9 19:03:20 10° S 19:08:20 77° ESE 19:13:32 10° NNE
PSLV R/B 3.2 19:05:56 10° SW 19:09:02 62° SSE 19:12:00 11° ENE
Cosmos 2297 Rocket 3.7 19:07:30 10° SE 19:10:24 14° E 19:13:19 10° ENE
ERS-2 2.1 19:07:11 10° SSE 19:10:52 86° ENE 19:14:34 10° NNW
GRACE-2 3.8 19:11:35 10° SSE 19:14:04 49° E 19:16:33 10° N
Cosmos 1048 Rocket 3.9 19:09:01 10° S 19:14:06 71° ESE 19:19:12 10° NNE
APEX 3.0 19:11:09 10° SSW 19:14:25 65° WNW 19:17:16 10° NNE
YAOGAN 1 2.5 19:11:09 10° SSE 19:15:27 77° ENE 19:19:48 10° N
Cosmos 1726 2.7 19:14:25 10° SSE 19:17:46 33° E 19:21:07 10° NNE
CZ-4 R/B 2.1 19:15:12 10° S 19:19:22 62° W 19:23:29 10° NNW
GRACE-1 3.5 19:17:12 10° S 19:19:45 69° E 19:22:19 10° N
SL-24 R/B - RUBIN 2 4.0 19:17:47 10° NW 19:22:27 67° WSW 19:26:44 10° SSE
Cosmos 1420 Rocket 4.0 19:18:29 10° NNW 19:23:48 73° ENE 19:29:02 10° SSE
ASTRO E2 4.0 19:20:20 10° WSW 19:23:58 33° SSW 19:27:36 10° SE
EO 1 Del DPAF 3.5 19:20:55 10° N 19:24:45 75° WNW 19:28:34 10° SSW
DELTA 2 R/B (1) 3.6 19:22:14 10° WNW 19:27:50 84° SSW 19:33:03 12° ESE
Cosmos 2322 3.9 19:23:32 10° NNW 19:29:16 78° WSW 19:34:56 10° SSE
NOAA 12 4.3 19:25:01 10° SE 19:30:04 48° ENE 19:35:10 10° N
Cosmos 1934 Rocket 4.3 19:27:36 10° SSE 19:33:36 46° E 19:39:37 10° NNE
Cosmos 1821 Rocket 3.9 19:29:21 10° S 19:35:24 65° E 19:41:36 10° NNE
Cosmos 2219 Rocket 2.6 19:30:20 10° N 19:35:32 38° ENE 19:40:44 10° SE
METEOR-M 4.1 19:30:30 10° SSE 19:35:51 86° ENE 19:41:13 10° NNW
Cosmos 2221 2.7 19:31:59 10° SSW 19:36:17 74° W 19:40:38 10° N
OAO 1 Rocket 4.4 19:31:46 10° W 19:37:05 89° S 19:40:46 20° E
Cosmos 1000 Rocket 4.4 19:30:57 10° N 19:37:06 63° E 19:43:09 10° SSE
ALOS 2.4 19:34:22 10° SSE 19:38:53 53° ENE 19:43:25 10° N
Delta 2 Rocket 3.0 19:35:38 10° W 19:39:36 80° SSW 19:41:39 24° ESE
Cosmos 2084 4.4 19:37:16 10° N 19:40:20 22° NE 19:40:52 22° ENE
Cosmos 2239 Rocket 4.4 19:34:42 10° S 19:40:46 72° E 19:46:54 10° N
Cosmos 1315 Rocket 3.6 19:38:11 10° NNW 19:42:13 57° W 19:46:15 10° S
Cosmos 921 Rocket 4.0 19:40:06 10° NNW 19:44:21 49° W 19:48:31 10° S
Thor Agena Rocket 3.7 19:40:16 10° NNE 19:45:10 47° E 19:50:00 10° S
SKYMED 2 4.3 19:41:17 10° N 19:45:32 55° WNW 19:49:46 10° SSW
USA 267 4.1 19:48:34 22° E 19:51:12 28° SE 19:56:38 10° S
BREEZE-M DEB (TANK) 4.4 19:44:35 10° WNW 20:01:34 42° N 20:04:20 26° ENE
Cosmos 2333 4.4 19:59:30 10° NNW 20:05:13 75° WSW 20:10:58 10° SSE
H-2A R/B 2.9 20:07:18 51° ENE 20:07:18 51° ENE 20:11:06 10° N
Cosmos 2123 Rocket 3.9 20:03:43 10° N 20:09:57 65° E 20:16:10 10° SSE
Cosmos 1605 Rocket 3.9 20:03:57 10° S 20:09:57 61° E 20:15:56 10° NNE
Aureole 2 Rocket 2.8 20:06:00 10° NNW 20:10:00 81° WSW 20:13:40 13° SSE
In-Cosmos 22 Rocket 4.3 20:05:16 10° N 20:10:58 58° E 20:16:42 10° SSE
Cosmos 2237 Rocket 2.5 20:07:33 10° N 20:12:57 42° ENE 20:13:39 40° E
Cosmos 2227 Rocket 2.0 20:10:55 10° SSW 20:16:32 75° ESE 20:21:11 16° NNE
SWAS 4.5 20:12:38 10° SSW 20:16:53 78° WNW 20:19:08 27° NNE
Cosmos 1300 3.7 20:18:01 10° SSW 20:21:43 47° W 20:25:26 10° N
SL-16 R/B 3.9 20:21:13 10° N 20:23:15 17° NNE 20:23:15 17° NNE
NOSS 0 Rocket 3.8 20:19:46 10° NNW 20:25:57 77° ENE 20:28:59 32° SSE
Atlas Centaur 2 3.8 20:22:53 10° WSW 20:26:14 20° SSW 20:28:27 15° SSE
Cosmos 494 Rocket 4.1 20:22:25 10° SSW 20:27:30 70° WNW 20:32:36 10° NNE
Gbstr 26 Del rocket 3.7 20:22:20 10° NW 20:27:40 89° NE 20:29:43 45° SE
Sich 1 3.5 20:24:54 10° NNW 20:29:14 61° W 20:33:35 10° S
Meteor 2-17 Rocket 4.4 20:27:52 10° S 20:33:46 57° E 20:39:43 10° NNE
Cosmos 1980 3.5 20:31:47 10° NNW 20:37:27 74° ENE 20:37:55 70° ESE
Cosmos 1110 Rocket 4.0 20:34:40 10° NNW 20:39:59 78° WSW 20:41:39 44° S
CZ-4C R/B 4.3 20:37:55 10° W 20:42:00 22° NW 20:46:30 10° N
BREEZE-M R/B 4.4 20:39:30 10° W 20:41:04 25° WNW 20:41:04 25° WNW
Meteor 2-3 Rocket 4.4 20:39:02 10° N 20:42:51 40° NNE 20:42:51 40° NNE
USA 32 4.5 20:41:31 10° N 20:45:20 49° N 20:45:20 49° N
Hubble Space Telescope 2.7 20:43:20 10° WSW 20:45:28 23° SSW 20:45:28 23° SSW
Cosmos 2228 Rocket 4.1 20:43:05 10° SSW 20:46:04 40° SSW 20:46:04 40° SSW
Cosmos 1447 Rocket 4.4 20:41:18 10° N 20:47:21 70° ENE 20:47:21 70° ENE
Cosmos 2333 Rocket 2.7 20:44:35 10° NNW 20:50:13 57° WSW 20:53:15 27° S
Cosmos 2297 Rocket 2.5 20:48:13 10° SSW 20:53:48 63° WNW 20:56:00 37° N
Cosmos 2251 Rocket 4.5 20:58:35 10° SW 21:03:37 45° WNW 21:06:05 27° NNW
Cosmos 2082 4.4 20:58:47 10° SW 21:04:22 53° WNW 21:06:19 36° NNW
Cosmos 2219 Rocket 4.2 21:14:45 10° NW 21:19:13 25° WSW 21:23:28 11° SSW
USA 267 3.8 21:35:57 52° W 21:35:57 52° W 21:40:54 10° WSW
Cosmos 2237 Rocket 4.3 21:52:17 10° NW 21:55:33 22° W 21:55:33 22° W
